SCP
0 0 0 0 0 0 0 0 0 0 0 0 0 0 0 0 0 1 1 1 1 1 1 1 2 2 2 2 1 1 2 3 4 4 5 5 4 3 2 1 1 1 1 1
0 0 0 0 0 0 0 0 0 0 0 0 0 0 0 0 0 1 1 1 1 1 1 1 2 3 3 2 2 2 3 4 4 4 5 5 4 3 3 2 1 1 1 1
0 0 0 0 0 0 0 0 0 0 0 0 0 0 0 0 0 1 1 1 1 1 1 2 2 3 4 4 3 3 4 4 4 5 5 5 5 4 4 3 2 1 1 1
0 0 0 0 0 0 0 0 0 0 0 0 0 0 0 0 0 1 1 1 1 1 1 1 2 2 3 4 4 4 5 5 5 5 6 6 5 5 4 3 2 2 1 1
0 0 0 0 0 0 0 0 0 0 0 0 0 0 0 1 1 1 1 1 1 1 1 1 2 2 3 4 4 5 5 5 5 6 6 6 6 5 4 3 2 2 1 1
0 0 0 0 0 0 0 0 0 0 0 0 0 0 0 1 1 1 1 1 1 1 1 1 2 2 3 3 4 4 5 6 6 6 7 6 5 4 3 2 2 2 2 1
0 0 0 0 0 0 0 0 0 0 0 0 0 0 0 0 0 0 1 1 1 1 1 1 1 2 2 3 3 4 5 5 6 6 6 5 4 3 2 2 1 1 2 2
0 0 0 0 0 0 0 0 0 0 0 0 0 0 0 0 0 0 1 1 1 1 1 1 1 1 2 2 3 3 4 4 4 4 5 4 3 2 2 1 1 1 2 1
0 0 0 0 0 0 0 0 0 0 0 0 0 0 0 0 0 0 0 1 1 0 0 1 1 1 1 1 2 2 3 3 3 3 3 3 3 2 1 1 1 1 1 1
0 0 0 0 0 0 0 0 0 0 0 0 0 0 0 0 0 0 0 0 0 0 0 0 1 1 1 1 1 1 2 2 2 2 2 3 3 2 1 1 1 1 1 1
0 0 0 0 0 0 0 0 0 0 0 0 0 0 0 0 0 0 0 0 0 0 0 0 0 0 0 0 0 1 1 1 1 1 1 1 2 1 1 1 1 1 1 1
0 0 0 0 0 0 0 0 0 0 0 0 0 0 0 0 0 0 0 0 0 0 0 0 0 0 0 0 0 0 1 1 1 1 1 1 1 1 1 1 1 1 1 1
0 0 0 0 0 0 0 0 0 0 0 0 0 0 0 0 0 0 0 0 0 0 0 0 0 0 0 0 0 0 0 1 1 1 1 0 0 0 1 1 1 1 1 1
0 0 0 0 0 0 0 0 0 0 0 0 0 0 0 0 0 0 0 0 0 0 0 0 0 0 0 0 0 0 0 0 1 1 0 0 0 0 0 0 0 1 1 1
0 0 0 0 0 0 0 0 0 0 0 0 0 0 0 0 0 0 0 0 0 0 0 0 0 0 0 0 0 0 0 0 0 0 0 0 0 0 0 0 0 1 1 1
0 0 0 0 0 0 0 0 0 0 0 0 0 0 0 0 0 0 0 0 0 0 0 0 0 0 0 0 0 0 0 0 0 0 0 0 0 0 0 0 1 1 1 1
0 0 0 0 0 0 0 0 0 0 0 0 0 0 0 0 0 0 0 0 0 0 0 0 0 0 0 0 0 0 0 0 0 0 0 0 0 0 0 0 1 1 1 1
0 0 0 0 0 0 0 0 0 0 0 0 0 0 0 0 0 0 0 0 0 0 0 0 0 0 0 0 0 0 0 0 0 0 0 0 0 0 0 0 1 1 1 1
0 0 0 0 0 0 0 0 0 0 0 0 0 0 0 0 0 0 0 0 0 0 0 0 0 0 0 0 0 0 0 0 0 0 0 0 0 0 0 0 0 1 1 1
0 0 0 0 0 0 0 0 0 0 0 0 0 0 0 0 0 0 0 0 0 0 0 0 0 0 0 0 0 0 0 0 0 0 0 0 0 0 0 0 0 0 1 1
0 0 0 0 0 0 0 0 0 0 0 0 0 0 0 0 0 0 0 0 0 0 0 0 0 0 0 0 0 0 0 0 0 0 0 0 0 0 0 0 0 0 0 0
0 0 0 0 0 0 0 0 0 0 0 0 0 0 0 0 0 0 0 0 0 0 0 0 0 0 0 0 0 0 0 0 0 0 0 0 0 0 0 0 0 0 0 0
0 0 0 0 0 0 0 0 0 0 0 0 0 0 0 0 0 0 0 0 0 0 0 0 0 0 0 0 0 0 0 0 0 0 0 0 0 0 0 0 0 0 0 0
0 0 0 0 0 0 0 0 0 0 0 0 0 0 0 0 0 0 0 0 0 0 0 0 0 0 0 0 0 0 0 0 0 0 0 0 0 0 0 0 0 0 0 0
0 0 0 0 0 0 0 0 0 0 0 0 0 0 0 0 0 0 0 0 0 0 0 0 0 0 0 0 0 0 0 0 0 0 0 0 0 0 0 0 0 0 0 0
0 0 0 0 0 0 0 0 0 0 0 0 0 0 0 0 0 0 0 0 0 0 0 0 0 0 0 0 0 0 0 0 0 0 0 0 0 0 0 0 0 0 0 0
Wind_Speed
1 0 3 5 4 5 6 8 9 6 4 6 6 4 1 4 8 10 11 12 13 13 12 11 10 9 9 11 14 15 15 15 12 10 9 8 7 6 6 6 9 10 10 10
3 5 6 4 3 4 6 9 9 6 3 7 8 5 2 4 7 10 11 13 14 16 16 14 12 10 9 9 12 14 15 14 13 9 7 5 5 4 3 4 7 9 10 9
5 7 6 4 6 7 6 7 9 10 8 7 9 9 6 3 4 9 11 13 14 15 16 16 15 12 9 8 9 9 11 11 11 11 7 5 4 3 3 3 5 7 9 9
6 7 7 7 9 10 7 8 11 11 11 9 7 10 3 2 4 11 14 15 15 16 16 15 15 14 11 8 6 6 7 9 10 10 10 10 6 4 3 2 2 5 7 8
7 9 10 10 10 9 9 11 12 12 13 13 10 11 2 3 8 13 15 16 16 16 16 15 14 13 11 8 5 2 2 5 8 9 10 9 7 4 2 1 2 4 5 6
9 7 9 10 7 6 11 11 10 9 9 12 10 10 1 7 11 15 16 16 17 16 15 13 12 11 10 9 7 5 5 6 7 8 8 9 10 8 5 3 3 3 3 5
5 9 8 10 9 7 11 10 5 5 5 5 4 3 6 9 11 13 15 16 16 15 13 12 12 11 11 10 9 6 7 7 7 8 8 8 8 8 7 5 4 5 4 4
4 5 10 10 10 9 9 8 6 6 6 5 3 1 6 9 11 13 14 14 14 14 12 11 10 9 9 10 10 8 7 7 7 7 6 6 6 4 4 5 5 5 4 4
5 5 5 7 7 8 8 7 6 7 6 5 2 3 3 13 16 17 17 17 16 14 12 10 9 8 9 9 9 8 7 6 5 5 4 4 5 5 5 5 5 4 4 4
5 2 5 5 4 8 7 6 4 4 5 4 2 4 8 17 19 19 18 17 16 13 11 9 8 8 8 8 8 8 7 6 5 4 3 2 3 4 4 4 5 5 5 5
4 2 4 4 9 11 9 6 5 3 3 5 3 4 8 13 15 16 16 15 14 12 10 9 8 8 7 8 9 8 7 7 6 4 3 1 1 2 3 3 3 4 4 5
4 3 3 6 4 4 7 8 7 4 4 4 2 3 7 10 12 13 14 14 13 12 11 10 9 9 9 10 9 9 8 7 6 4 3 1 1 1 2 3 4 4 5 5
2 3 2 5 3 5 7 9 6 4 3 4 3 3 7 11 12 13 13 14 13 12 12 12 11 11 10 9 9 9 9 8 6 5 3 2 1 1 1 2 3 4 4 5
3 5 6 5 5 5 5 9 8 4 3 3 4 5 9 14 14 15 14 14 13 13 13 12 12 11 11 10 10 10 9 8 7 6 4 4 4 3 2 1 0 1 2 3
2 5 6 6 3 3 5 6 7 7 5 4 4 5 8 11 11 11 11 11 12 13 13 13 12 11 11 10 10 10 9 9 8 7 6 6 4 4 3 2 1 1 0 1
1 4 5 4 2 0 3 4 4 4 4 3 2 4 6 8 7 9 11 12 12 12 12 11 11 10 10 10 9 9 9 9 9 8 8 7 6 6 5 4 3 2 1 0
2 3 3 2 2 4 2 1 2 2 3 3 4 5 8 8 8 10 11 11 11 11 11 10 10 9 9 9 9 9 8 8 9 9 9 8 8 7 6 5 4 3 2 1
1 2 2 1 3 2 4 3 1 2 1 2 3 5 7 8 7 5 8 11 11 11 10 10 9 8 8 8 8 7 8 9 9 9 9 8 8 8 7 6 6 4 3 2
2 3 3 3 2 1 4 5 3 3 1 1 4 5 7 8 5 3 10 12 11 10 9 8 8 7 7 8 8 7 8 8 9 9 9 8 8 8 7 7 7 6 5 4
1 4 4 4 4 2 4 6 2 4 3 3 2 4 7 8 2 6 12 12 11 10 8 8 7 6 6 7 7 7 8 9 9 8 8 8 8 8 8 8 7 6 5 4
5 4 5 5 4 1 6 6 5 5 3 3 1 3 5 6 7 9 11 10 10 9 8 8 7 6 6 6 6 7 8 8 8 7 8 8 8 8 8 7 6 6 5 5
4 4 4 4 4 1 10 8 6 1 4 1 1 2 4 6 7 8 9 10 10 10 9 8 7 6 5 5 6 6 6 6 5 6 6 7 8 7 6 7 6 6 6 5
5 4 2 4 2 5 7 5 2 2 2 1 1 2 4 6 7 8 9 9 9 10 9 8 8 7 5 4 5 6 5 4 4 4 5 6 6 6 7 7 7 6 6 5
4 4 5 6 6 6 7 6 5 4 2 1 2 3 4 5 7 8 8 9 9 9 9 8 8 7 6 5 5 4 4 3 3 4 4 5 5 6 6 5 6 6 6 6
4 7 6 7 4 5 9 10 8 6 4 3 2 2 3 5 6 7 8 8 9 9 8 8 8 8 7 6 5 3 2 3 2 3 3 4 4 5 5 5 6 6 7 7
8 9 7 4 5 6 6 11 10 8 6 4 2 2 2 4 5 7 7 8 8 9 8 9 9 9 8 7 5 3 1 2 3 2 3 3 3 3 3 3 4 5 5 8
Wind_Direction
66 14 19 4 349 316 302 288 286 298 330 295 281 275 59 51 35 22 13 4 358 350 344 340 326 304 284 263 245 232 224 213 201 193 194 192 195 200 209 218 220 216 216 212
179 58 20 2 357 303 292 288 290 292 316 291 281 271 147 71 44 25 12 4 357 349 346 346 339 324 299 276 253 240 225 213 201 193 184 177 173 187 204 224 236 228 226 220
53 34 10 13 11 331 307 314 312 306 301 259 273 251 185 119 51 27 16 7 360 353 346 345 341 335 318 294 270 247 229 207 193 177 161 146 140 142 175 210 232 238 235 227
67 36 22 24 21 347 313 346 313 296 282 270 259 275 200 74 29 15 8 3 358 353 347 346 344 341 336 322 301 260 218 199 183 169 163 160 163 168 188 218 243 248 240 233
67 36 29 24 10 349 332 318 298 285 274 271 254 261 245 53 8 1 358 356 353 351 348 351 353 350 354 353 351 344 158 161 162 165 166 158 151 142 139 201 257 256 244 238
78 56 33 7 349 354 325 298 273 253 260 257 263 259 303 34 2 351 350 351 352 350 350 356 2 6 12 22 28 50 93 117 136 144 146 146 144 144 152 190 231 251 237 232
99 65 37 4 349 359 349 331 298 266 247 273 328 286 65 29 7 354 348 349 351 352 354 358 6 12 19 29 37 57 83 95 110 125 131 138 146 155 165 184 213 228 229 222
5 54 31 17 7 339 352 348 337 315 315 319 321 27 82 21 4 356 354 353 353 356 357 0 9 15 22 33 37 49 70 87 97 109 122 139 154 167 174 191 208 214 216 216
7 56 44 26 15 357 349 5 341 299 294 292 335 68 66 7 1 359 357 356 355 352 353 1 12 22 25 35 40 45 56 69 83 99 117 141 161 172 177 189 199 198 200 200
346 34 41 15 9 38 9 345 325 319 318 307 348 36 3 354 350 349 352 350 350 349 353 5 21 27 27 33 37 41 47 55 68 72 90 126 151 162 173 186 191 190 187 188
338 4 73 54 28 9 9 8 344 308 311 318 342 46 13 347 342 343 346 348 351 358 3 15 25 27 25 24 24 27 38 44 48 52 56 74 117 161 177 181 187 188 184 187
3 324 83 82 73 23 15 6 346 340 357 337 341 40 9 349 348 351 352 356 1 8 14 24 30 33 34 27 19 20 29 31 27 24 21 21 20 190 199 182 180 185 183 186
2 310 202 154 135 35 18 9 355 325 329 6 7 14 358 358 1 3 4 5 11 18 25 28 31 31 31 29 20 16 21 23 21 17 9 17 19 299 235 200 187 186 180 175
303 40 35 52 39 3 8 13 16 11 20 31 22 352 356 359 357 359 5 7 13 27 29 29 29 30 29 26 21 20 20 21 21 20 19 26 18 355 341 338 233 195 180 180
275 96 96 102 102 49 35 28 32 43 35 28 5 360 356 347 346 352 4 11 19 25 26 26 26 26 28 28 23 20 22 22 24 31 30 28 25 19 14 15 8 349 185 209
340 132 149 152 166 316 32 27 31 40 28 26 27 45 357 336 348 4 12 13 17 20 21 22 25 26 26 26 23 24 26 26 31 36 32 25 27 31 21 15 24 33 26 296
160 188 221 155 169 240 229 36 9 34 26 350 4 3 340 344 355 1 4 6 10 11 13 17 20 23 25 26 23 26 28 31 35 38 35 29 32 32 24 21 33 34 35 35
219 211 246 233 217 249 86 116 264 293 291 315 322 330 331 327 321 346 12 3 1 1 1 6 9 16 17 23 26 29 35 35 37 35 33 29 27 29 28 29 27 23 24 27
300 244 239 252 259 212 168 192 214 257 252 248 313 332 337 324 268 84 24 4 355 351 349 350 351 359 11 18 15 20 35 40 38 33 29 27 27 28 28 29 23 19 26 29
154 245 250 240 260 256 127 134 154 242 226 146 300 334 345 333 318 31 360 350 349 348 346 342 341 355 11 12 7 17 31 35 34 29 28 27 27 29 27 24 19 18 23 28
202 203 230 240 255 235 128 142 179 230 77 108 308 340 346 354 350 336 335 344 347 346 346 343 342 353 -0 358 358 16 26 30 27 25 30 31 29 34 31 27 23 20 27 33
243 221 217 225 241 177 144 168 208 47 86 132 317 345 342 333 329 335 341 344 347 349 351 348 343 346 349 351 351 10 22 20 24 30 35 36 33 31 31 32 29 27 27 35
231 247 270 243 348 82 168 184 149 131 163 160 309 334 326 323 334 340 341 345 349 351 351 347 338 334 343 353 346 356 16 8 15 31 40 40 40 42 34 30 31 30 29 29
202 210 236 245 231 203 198 198 189 195 201 203 288 304 306 320 330 336 342 346 348 350 349 344 338 337 345 349 342 347 356 349 356 25 33 43 41 46 46 35 32 32 26 26
216 189 221 237 218 196 209 207 199 193 201 218 250 281 306 318 329 337 338 345 345 344 345 342 339 336 335 336 335 345 339 325 344 15 29 43 49 45 45 54 39 31 41 23
198 198 203 227 190 197 190 191 191 192 199 213 242 273 308 318 327 332 336 341 340 340 341 341 341 339 336 333 333 347 341 305 326 9 23 29 47 57 49 60 88 71 46 38